| time (UTC) | temp F | wind direction | speed MPH | gust MPH | rain 1hr in | rain 24hr in | rain mn in | humidity % | barometer mb |
| 20260506072817 | 57 | 307 | 5.0 | 8.0 | 0.00 | 0.16 | 0.00 | 87 | 1018.9 |
| 20260506072220 | 57 | 302 | 6.0 | 8.0 | 0.00 | 0.16 | 0.00 | 86 | 1018.9 |
| 20260506071950 | 57 | 303 | 5.0 | 6.0 | 0.00 | 0.15 | 0.00 | 8 | 1018.7 |
| 20260506071620 | 58 | 304 | 5.0 | 6.0 | 0.00 | 0.16 | 0.00 | 86 | 1018.9 |
| 20260506071020 | 58 | 296 | 5.0 | 8.0 | 0.00 | 0.16 | 0.00 | 86 | 1018.8 |
| 20260506070500 | 58 | 281 | 7.0 | 8.0 | 0.00 | 0.16 | 0.00 | 86 | 1018.7 |
| 20260506062218 | 57 | 293 | 7.0 | 8.0 | 0.00 | 0.17 | 0.16 | 87 | 1018.5 |
| 20260506061949 | 57 | 293 | 6.0 | 9.0 | 0.00 | 0.17 | 0.15 | 8 | 1018.3 |
| 20260506061638 | 57 | 293 | 8.0 | 9.0 | 0.00 | 0.17 | 0.16 | 87 | 1018.5 |
| 20260506061038 | 57 | 293 | 8.0 | 10.0 | 0.00 | 0.17 | 0.16 | 87 | 1018.4 |
| 20260506060949 | 57 | 294 | 7.0 | 8.0 | 0.00 | 0.17 | 0.15 | 8 | 1018.3 |
| 20260506060422 | 57 | 295 | 7.0 | 10.0 | 0.00 | 0.18 | 0.16 | 88 | 1018.4 |
| 20260506051037 | 57 | 280 | 7.0 | 9.0 | 0.00 | 0.21 | 0.16 | 90 | 1018.2 |
| 20260506050422 | 57 | 282 | 8.0 | 9.0 | 0.00 | 0.22 | 0.16 | 90 | 1018.2 |
| 20260506044640 | 57 | 267 | 7.0 | 8.0 | 0.00 | 0.22 | 0.16 | 90 | 1018.0 |
| 20260506044020 | 57 | 250 | 5.0 | 7.0 | 0.00 | 0.22 | 0.16 | 90 | 1018.1 |
| 20260506043950 | 57 | 263 | 5.0 | 7.0 | 0.00 | 0.21 | 0.15 | 9 | 1017.9 |
| 20260506043420 | 57 | 265 | 6.0 | 7.0 | 0.00 | 0.22 | 0.16 | 90 | 1018.0 |
| 20260506042949 | 57 | 258 | 5.0 | 6.0 | 0.00 | 0.21 | 0.15 | 9 | 1017.8 |
| 20260506042820 | 57 | 259 | 6.0 | 7.0 | 0.00 | 0.22 | 0.16 | 90 | 1017.9 |
| 20260506042220 | 57 | 262 | 6.0 | 7.0 | 0.00 | 0.22 | 0.16 | 90 | 1017.9 |
| 20260506041951 | 57 | 259 | 5.0 | 7.0 | 0.00 | 0.21 | 0.15 | 9 | 1017.6 |
| 20260506041621 | 57 | 259 | 6.0 | 7.0 | 0.00 | 0.22 | 0.16 | 90 | 1017.7 |
| 20260506041021 | 57 | 253 | 5.0 | 7.0 | 0.00 | 0.22 | 0.16 | 90 | 1017.7 |
| 20260506040949 | 57 | 262 | 5.0 | 7.0 | 0.00 | 0.21 | 0.15 | 9 | 1017.5 |
| 20260506040429 | 57 | 259 | 5.0 | 7.0 | 0.00 | 0.22 | 0.16 | 90 | 1017.6 |
| 20260506035949 | 57 | 260 | 6.0 | 9.0 | 0.00 | 0.21 | 0.15 | 9 | 1017.4 |
| 20260506035829 | 57 | 260 | 7.0 | 9.0 | 0.00 | 0.22 | 0.16 | 90 | 1017.5 |
| 20260506035218 | 57 | 266 | 7.0 | 8.0 | 0.00 | 0.22 | 0.16 | 90 | 1017.5 |
| 20260506034618 | 57 | 258 | 6.0 | 7.0 | 0.00 | 0.22 | 0.16 | 90 | 1017.4 |
| 20260506034018 | 57 | 267 | 6.0 | 7.0 | 0.00 | 0.22 | 0.16 | 90 | 1017.3 |
| 20260506033950 | 57 | 262 | 5.0 | 7.0 | 0.00 | 0.21 | 0.15 | 8 | 1017.2 |
| 20260506033418 | 57 | 260 | 5.0 | 7.0 | 0.00 | 0.22 | 0.16 | 90 | 1017.3 |
| 20260506032818 | 57 | 265 | 6.0 | 8.0 | 0.00 | 0.22 | 0.16 | 90 | 1017.2 |
| 20260506032218 | 57 | 259 | 6.0 | 8.0 | 0.00 | 0.22 | 0.16 | 90 | 1017.1 |
| 20260506031951 | 57 | 251 | 5.0 | 6.0 | 0.00 | 0.21 | 0.15 | 8 | 1017.0 |
| 20260506031638 | 57 | 262 | 6.0 | 7.0 | 0.00 | 0.22 | 0.16 | 90 | 1017.1 |
| 20260506031018 | 57 | 248 | 6.0 | 8.0 | 0.00 | 0.22 | 0.16 | 90 | 1017.0 |
| 20260506030949 | 57 | 255 | 5.0 | 7.0 | 0.00 | 0.21 | 0.15 | 8 | 1016.9 |
| 20260506030418 | 57 | 254 | 6.0 | 7.0 | 0.00 | 0.22 | 0.16 | 90 | 1017.0 |
| 20260506025950 | 57 | 253 | 5.0 | 7.0 | 0.00 | 0.21 | 0.15 | 8 | 1016.8 |
| 20260506025839 | 57 | 254 | 5.0 | 7.0 | 0.00 | 0.22 | 0.16 | 89 | 1016.9 |
| 20260506025219 | 57 | 251 | 6.0 | 7.0 | 0.00 | 0.22 | 0.16 | 89 | 1016.9 |
| 20260506024949 | 57 | 250 | 5.0 | 6.0 | 0.00 | 0.21 | 0.15 | 8 | 1016.8 |
| 20260506024642 | 57 | 248 | 7.0 | 8.0 | 0.00 | 0.22 | 0.16 | 89 | 1016.9 |
| 20260506024022 | 57 | 246 | 6.0 | 7.0 | 0.00 | 0.22 | 0.16 | 89 | 1016.8 |
| 20260506023949 | 57 | 249 | 6.0 | 7.0 | 0.00 | 0.21 | 0.15 | 8 | 1016.7 |
| 20260506023420 | 57 | 254 | 6.0 | 8.0 | 0.00 | 0.22 | 0.16 | 89 | 1016.8 |
| 20260506022819 | 57 | 244 | 7.0 | 9.0 | 0.00 | 0.22 | 0.16 | 89 | 1016.7 |
| 20260506022219 | 57 | 251 | 7.0 | 9.0 | 0.00 | 0.22 | 0.16 | 89 | 1016.7 |
| 20260506021949 | 56 | 247 | 6.0 | 8.0 | 0.00 | 0.21 | 0.15 | 8 | 1016.5 |
| 20260506021637 | 57 | 244 | 8.0 | 9.0 | 0.00 | 0.22 | 0.16 | 89 | 1016.6 |
| 20260506021016 | 57 | 246 | 8.0 | 9.0 | 0.00 | 0.22 | 0.16 | 89 | 1016.7 |
| 20260506020420 | 57 | 248 | 8.0 | 10.0 | 0.00 | 0.22 | 0.16 | 89 | 1016.7 |
| 20260506015949 | 56 | 257 | 9.0 | 12.0 | 0.00 | 0.21 | 0.15 | 8 | 1016.5 |
| 20260506015819 | 57 | 258 | 10.0 | 12.0 | 0.00 | 0.22 | 0.16 | 89 | 1016.7 |
| 20260506015220 | 57 | 254 | 9.0 | 10.0 | 0.00 | 0.22 | 0.16 | 89 | 1016.7 |
| 20260506014949 | 56 | 255 | 9.0 | 11.0 | 0.00 | 0.21 | 0.15 | 8 | 1016.5 |
| 20260506014620 | 57 | 258 | 10.0 | 11.0 | 0.00 | 0.22 | 0.16 | 89 | 1016.7 |
| 20260506014020 | 57 | 259 | 9.0 | 10.0 | 0.00 | 0.22 | 0.16 | 89 | 1016.7 |
| 20260506013951 | 56 | 261 | 9.0 | 10.0 | 0.00 | 0.21 | 0.15 | 8 | 1016.6 |
| 20260506013420 | 57 | 261 | 10.0 | 10.0 | 0.00 | 0.22 | 0.16 | 89 | 1016.7 |
| 20260506012820 | 57 | 260 | 9.0 | 10.0 | 0.00 | 0.22 | 0.16 | 89 | 1016.7 |
| 20260506012217 | 57 | 261 | 9.0 | 11.0 | 0.00 | 0.22 | 0.16 | 89 | 1016.6 |
| 20260506011950 | 56 | 257 | 9.0 | 10.0 | 0.00 | 0.21 | 0.15 | 8 | 1016.5 |
| 20260506011617 | 57 | 253 | 9.0 | 11.0 | 0.00 | 0.22 | 0.16 | 89 | 1016.6 |
| 20260506011017 | 57 | 260 | 10.0 | 11.0 | 0.00 | 0.22 | 0.16 | 89 | 1016.6 |
| 20260506010949 | 56 | 256 | 9.0 | 11.0 | 0.00 | 0.21 | 0.15 | 8 | 1016.6 |
| 20260506010417 | 57 | 260 | 10.0 | 12.0 | 0.00 | 0.22 | 0.16 | 89 | 1016.6 |
| 20260506005950 | 56 | 258 | 9.0 | 11.0 | 0.00 | 0.21 | 0.15 | 8 | 1016.3 |
| 20260506005818 | 57 | 258 | 9.0 | 11.0 | 0.00 | 0.22 | 0.16 | 89 | 1016.5 |
| 20260506005221 | 57 | 256 | 10.0 | 11.0 | 0.00 | 0.22 | 0.16 | 89 | 1016.5 |
| 20260506004949 | 57 | 252 | 9.0 | 11.0 | 0.00 | 0.21 | 0.15 | 8 | 1016.3 |
| 20260506004642 | 57 | 254 | 10.0 | 11.0 | 0.00 | 0.22 | 0.16 | 88 | 1016.4 |
| 20260506004021 | 57 | 252 | 9.0 | 12.0 | 0.00 | 0.22 | 0.16 | 88 | 1016.3 |
| 20260506003950 | 56 | 250 | 8.0 | 10.0 | 0.00 | 0.21 | 0.15 | 8 | 1016.1 |
| 20260506003442 | 57 | 258 | 10.0 | 11.0 | 0.00 | 0.22 | 0.16 | 88 | 1016.2 |
| 20260506002839 | 57 | 258 | 10.0 | 11.0 | 0.00 | 0.22 | 0.16 | 89 | 1016.2 |
| 20260506002242 | 57 | 252 | 9.0 | 11.0 | 0.00 | 0.22 | 0.16 | 89 | 1016.1 |
| 20260506001951 | 56 | 255 | 9.0 | 11.0 | 0.00 | 0.21 | 0.15 | 8 | 1015.9 |
| 20260506001618 | 57 | 265 | 9.0 | 11.0 | 0.00 | 0.22 | 0.16 | 89 | 1016.0 |
| 20260506001039 | 57 | 259 | 10.0 | 11.0 | 0.00 | 0.22 | 0.16 | 89 | 1016.2 |
| 20260506000418 | 57 | 258 | 10.0 | 11.0 | 0.00 | 0.22 | 0.16 | 88 | 1016.1 |
| 20260505235950 | 56 | 254 | 9.0 | 12.0 | 0.00 | 0.21 | 0.15 | 8 | 1016.0 |
| 20260505235859 | 57 | 255 | 10.0 | 12.0 | 0.00 | 0.22 | 0.16 | 88 | 1016.2 |
| 20260505235219 | 57 | 259 | 10.0 | 11.0 | 0.00 | 0.22 | 0.16 | 88 | 1016.0 |
| 20260505234949 | 56 | 262 | 10.0 | 11.0 | 0.00 | 0.21 | 0.15 | 8 | 1015.7 |
| 20260505234619 | 57 | 263 | 10.0 | 12.0 | 0.00 | 0.22 | 0.16 | 87 | 1015.8 |
| 20260505234039 | 57 | 257 | 10.0 | 12.0 | 0.00 | 0.22 | 0.16 | 87 | 1016.5 |
| 20260505233950 | 56 | 255 | 9.0 | 11.0 | 0.00 | 0.21 | 0.15 | 8 | 1016.3 |
| 20260505233420 | 56 | 260 | 8.0 | 10.0 | 0.00 | 0.22 | 0.16 | 87 | 1016.5 |
| 20260505232819 | 56 | 263 | 8.0 | 9.0 | 0.00 | 0.22 | 0.16 | 88 | 1016.5 |
| 20260505232240 | 56 | 268 | 9.0 | 11.0 | 0.00 | 0.22 | 0.16 | 88 | 1016.6 |
| 20260505231950 | 56 | 262 | 8.0 | 10.0 | 0.00 | 0.21 | 0.15 | 8 | 1016.4 |
| 20260505231640 | 56 | 261 | 8.0 | 10.0 | 0.00 | 0.22 | 0.16 | 88 | 1016.5 |
| 20260505231020 | 56 | 256 | 9.0 | 10.0 | 0.00 | 0.22 | 0.16 | 88 | 1016.5 |
| 20260505230420 | 56 | 255 | 9.0 | 10.0 | 0.00 | 0.22 | 0.16 | 88 | 1016.4 |
| 20260505225950 | 56 | 253 | 8.0 | 10.0 | 0.00 | 0.21 | 0.15 | 8 | 1016.2 |
| 20260505225840 | 56 | 253 | 8.0 | 11.0 | 0.00 | 0.22 | 0.16 | 88 | 1016.3 |
| 20260505225217 | 56 | 255 | 10.0 | 11.0 | 0.00 | 0.22 | 0.16 | 88 | 1016.3 |
| 20260505224623 | 56 | 259 | 10.0 | 11.0 | 0.00 | 0.22 | 0.16 | 88 | 1016.3 |
| 20260505224020 | 56 | 257 | 9.0 | 10.0 | 0.00 | 0.22 | 0.16 | 88 | 1016.3 |
| 20260505223950 | 56 | 257 | 10.0 | 11.0 | 0.00 | 0.21 | 0.15 | 8 | 1016.2 |
| 20260505223440 | 56 | 263 | 10.0 | 12.0 | 0.00 | 0.22 | 0.16 | 87 | 1016.2 |
| 20260505222841 | 56 | 259 | 9.0 | 11.0 | 0.00 | 0.22 | 0.16 | 87 | 1016.3 |
| 20260505222220 | 56 | 259 | 9.0 | 10.0 | 0.00 | 0.22 | 0.16 | 87 | 1016.1 |
| 20260505221950 | 56 | 265 | 9.0 | 10.0 | 0.00 | 0.21 | 0.15 | 8 | 1016.0 |
| 20260505221620 | 56 | 266 | 9.0 | 12.0 | 0.00 | 0.22 | 0.16 | 87 | 1016.1 |
| 20260505221020 | 56 | 265 | 9.0 | 11.0 | 0.00 | 0.22 | 0.16 | 87 | 1016.2 |
| 20260505220421 | 56 | 259 | 10.0 | 11.0 | 0.00 | 0.22 | 0.16 | 86 | 1016.1 |
| 20260505215950 | 56 | 256 | 9.0 | 10.0 | 0.00 | 0.21 | 0.15 | 8 | 1016.2 |
| 20260505215821 | 57 | 256 | 9.0 | 11.0 | 0.00 | 0.22 | 0.16 | 86 | 1016.3 |
| 20260505215221 | 56 | 258 | 9.0 | 10.0 | 0.00 | 0.22 | 0.16 | 86 | 1016.4 |
| 20260505214618 | 56 | 262 | 10.0 | 11.0 | 0.00 | 0.22 | 0.16 | 86 | 1016.3 |
| 20260505214018 | 56 | 265 | 9.0 | 11.0 | 0.00 | 0.22 | 0.16 | 86 | 1016.1 |
| 20260505213950 | 56 | 260 | 9.0 | 10.0 | 0.00 | 0.21 | 0.15 | 8 | 1016.0 |
| 20260505213418 | 56 | 264 | 10.0 | 11.0 | 0.00 | 0.22 | 0.16 | 87 | 1016.2 |
| 20260505212819 | 56 | 266 | 10.0 | 12.0 | 0.00 | 0.22 | 0.16 | 87 | 1016.4 |
| 20260505212219 | 56 | 270 | 10.0 | 11.0 | 0.00 | 0.22 | 0.16 | 88 | 1016.5 |
| 20260505211950 | 55 | 271 | 9.0 | 10.0 | 0.00 | 0.21 | 0.15 | 8 | 1016.2 |
| 20260505211639 | 56 | 273 | 10.0 | 11.0 | 0.00 | 0.22 | 0.16 | 88 | 1016.4 |
| 20260505211019 | 56 | 276 | 9.0 | 11.0 | 0.00 | 0.22 | 0.16 | 88 | 1016.5 |
| 20260505210422 | 56 | 270 | 9.0 | 11.0 | 0.00 | 0.22 | 0.16 | 87 | 1016.3 |
| 20260505205950 | 56 | 271 | 9.0 | 11.0 | 0.00 | 0.21 | 0.15 | 8 | 1016.2 |
| 20260505205839 | 57 | 272 | 9.0 | 11.0 | 0.00 | 0.22 | 0.16 | 87 | 1016.3 |
| 20260505205219 | 57 | 281 | 9.0 | 11.0 | 0.00 | 0.22 | 0.16 | 86 | 1016.2 |
| 20260505204622 | 56 | 268 | 10.0 | 12.0 | 0.00 | 0.22 | 0.16 | 85 | 1016.1 |
| 20260505204022 | 56 | 267 | 9.0 | 11.0 | 0.00 | 0.22 | 0.16 | 85 | 1016.2 |
| 20260505203950 | 56 | 268 | 9.0 | 10.0 | 0.00 | 0.21 | 0.15 | 8 | 1015.9 |
| 20260505203440 | 56 | 268 | 9.0 | 11.0 | 0.00 | 0.22 | 0.16 | 85 | 1016.2 |
| 20260505202819 | 56 | 272 | 10.0 | 11.0 | 0.00 | 0.22 | 0.16 | 86 | 1016.1 |
| 20260505202217 | 56 | 272 | 9.0 | 11.0 | 0.00 | 0.22 | 0.16 | 86 | 1016.2 |
| 20260505201950 | 56 | 265 | 9.0 | 11.0 | 0.00 | 0.21 | 0.15 | 8 | 1016.1 |
| 20260505201620 | 56 | 270 | 10.0 | 12.0 | 0.00 | 0.22 | 0.16 | 86 | 1016.3 |
| 20260505201040 | 56 | 270 | 10.0 | 11.0 | 0.00 | 0.22 | 0.16 | 86 | 1016.3 |
| 20260505200420 | 56 | 266 | 10.0 | 12.0 | 0.00 | 0.22 | 0.16 | 86 | 1016.4 |
| 20260505195950 | 55 | 273 | 10.0 | 12.0 | 0.00 | 0.21 | 0.15 | 8 | 1016.1 |
| 20260505195820 | 56 | 273 | 11.0 | 12.0 | 0.00 | 0.22 | 0.16 | 86 | 1016.3 |
| 20260505195220 | 56 | 269 | 10.0 | 12.0 | 0.00 | 0.22 | 0.16 | 87 | 1016.3 |
| 20260505194637 | 56 | 278 | 9.0 | 11.0 | 0.00 | 0.22 | 0.16 | 87 | 1016.3 |
| 20260505194037 | 56 | 276 | 10.0 | 12.0 | 0.00 | 0.22 | 0.16 | 87 | 1016.3 |
| 20260505193950 | 55 | 277 | 9.0 | 11.0 | 0.00 | 0.21 | 0.15 | 8 | 1016.1 |
| 20260505193458 | 56 | 274 | 10.0 | 12.0 | 0.00 | 0.22 | 0.16 | 87 | 1016.2 |
| 20260505192817 | 56 | 276 | 9.0 | 10.0 | 0.00 | 0.22 | 0.16 | 88 | 1016.4 |
| 20260505192224 | 56 | 281 | 9.0 | 11.0 | 0.00 | 0.22 | 0.16 | 88 | 1016.4 |
| 20260505191950 | 55 | 276 | 8.0 | 10.0 | 0.00 | 0.21 | 0.15 | 8 | 1016.2 |
| 20260505191621 | 56 | 279 | 9.0 | 11.0 | 0.00 | 0.22 | 0.16 | 88 | 1016.3 |
| 20260505191018 | 56 | 276 | 9.0 | 10.0 | 0.00 | 0.22 | 0.16 | 88 | 1016.4 |
| 20260505190418 | 56 | 275 | 8.0 | 10.0 | 0.00 | 0.22 | 0.16 | 88 | 1016.4 |
| 20260505185949 | 55 | 280 | 7.0 | 8.0 | 0.00 | 0.21 | 0.15 | 8 | 1016.3 |
| 20260505185818 | 56 | 280 | 8.0 | 9.0 | 0.00 | 0.22 | 0.16 | 89 | 1016.4 |
| 20260505185219 | 56 | 284 | 8.0 | 10.0 | 0.00 | 0.22 | 0.16 | 89 | 1016.4 |
| 20260505184949 | 55 | 284 | 8.0 | 9.0 | 0.00 | 0.21 | 0.15 | 8 | 1016.4 |
| 20260505184618 | 56 | 282 | 8.0 | 9.0 | 0.00 | 0.22 | 0.16 | 89 | 1016.6 |
| 20260505184038 | 56 | 290 | 9.0 | 11.0 | 0.00 | 0.22 | 0.16 | 89 | 1016.6 |
| 20260505183949 | 55 | 294 | 6.0 | 10.0 | 0.00 | 0.21 | 0.15 | 8 | 1016.5 |
| 20260505183419 | 56 | 300 | 8.0 | 10.0 | 0.00 | 0.22 | 0.16 | 89 | 1016.6 |
| 20260505182949 | 55 | 299 | 8.0 | 10.0 | 0.00 | 0.21 | 0.15 | 8 | 1016.6 |
| 20260505182819 | 56 | 299 | 9.0 | 11.0 | 0.00 | 0.22 | 0.16 | 89 | 1016.7 |
| 20260505182219 | 56 | 299 | 8.0 | 11.0 | 0.00 | 0.22 | 0.16 | 90 | 1015.9 |
| 20260505181949 | 55 | 298 | 6.0 | 9.0 | 0.00 | 0.21 | 0.15 | 8 | 1016.0 |
| 20260505181619 | 56 | 299 | 7.0 | 10.0 | 0.00 | 0.22 | 0.16 | 90 | 1016.2 |
| 20260505181019 | 55 | 296 | 8.0 | 11.0 | 0.00 | 0.22 | 0.16 | 90 | 1016.3 |
| 20260505180949 | 55 | 297 | 8.0 | 9.0 | 0.00 | 0.21 | 0.15 | 9 | 1016.0 |
| 20260505180419 | 55 | 289 | 10.0 | 11.0 | 0.00 | 0.22 | 0.16 | 90 | 1016.1 |
| 20260505175949 | 55 | 299 | 7.0 | 9.0 | 0.00 | 0.21 | 0.15 | 9 | 1015.8 |
| 20260505175819 | 56 | 300 | 8.0 | 10.0 | 0.00 | 0.22 | 0.16 | 91 | 1015.9 |
| 20260505175300 | 56 | 292 | 10.0 | 12.0 | 0.00 | 0.22 | 0.16 | 91 | 1015.9 |
| 20260505174623 | 56 | 301 | 7.0 | 10.0 | 0.00 | 0.22 | 0.16 | 91 | 1015.9 |
| 20260505174022 | 55 | 303 | 8.0 | 10.0 | 0.00 | 0.22 | 0.16 | 91 | 1016.0 |
| 20260505173950 | 55 | 301 | 7.0 | 9.0 | 0.00 | 0.21 | 0.15 | 9 | 1015.8 |
| 20260505173426 | 56 | 300 | 6.0 | 10.0 | 0.00 | 0.22 | 0.16 | 91 | 1015.9 |
| 20260505172826 | 56 | 298 | 6.0 | 9.0 | 0.00 | 0.22 | 0.16 | 91 | 1016.0 |
| 20260505172226 | 56 | 302 | 6.0 | 8.0 | 0.00 | 0.22 | 0.16 | 91 | 1016.0 |
| 20260505171949 | 55 | 302 | 5.0 | 7.0 | 0.00 | 0.21 | 0.15 | 9 | 1015.8 |
| 20260505171632 | 55 | 302 | 5.0 | 8.0 | 0.00 | 0.22 | 0.16 | 91 | 1015.9 |
| 20260505171032 | 55 | 302 | 6.0 | 9.0 | 0.00 | 0.22 | 0.16 | 91 | 1015.9 |
| 20260505170949 | 55 | 305 | 7.0 | 10.0 | 0.00 | 0.21 | 0.15 | 9 | 1015.7 |
| 20260505170417 | 55 | 307 | 8.0 | 11.0 | 0.00 | 0.22 | 0.16 | 91 | 1015.8 |
| 20260505165950 | 55 | 304 | 5.0 | 6.0 | 0.00 | 0.21 | 0.15 | 9 | 1015.7 |
| 20260505165820 | 55 | 305 | 5.0 | 7.0 | 0.00 | 0.22 | 0.16 | 91 | 1015.9 |
| 20260505165240 | 56 | 300 | 6.0 | 8.0 | 0.00 | 0.22 | 0.16 | 91 | 1015.9 |
| 20260505164949 | 55 | 302 | 6.0 | 7.0 | 0.00 | 0.21 | 0.15 | 9 | 1015.8 |
| 20260505164620 | 56 | 301 | 6.0 | 8.0 | 0.00 | 0.22 | 0.16 | 91 | 1015.9 |
| 20260505164020 | 55 | 296 | 7.0 | 9.0 | 0.00 | 0.22 | 0.16 | 91 | 1015.8 |
| 20260505163949 | 55 | 300 | 6.0 | 8.0 | 0.00 | 0.21 | 0.15 | 9 | 1015.7 |
| 20260505163421 | 55 | 300 | 6.0 | 8.0 | 0.00 | 0.22 | 0.16 | 91 | 1015.9 |
| 20260505162821 | 55 | 265 | 9.0 | 10.0 | 0.00 | 0.22 | 0.16 | 91 | 1015.8 |
| 20260505162221 | 55 | 271 | 9.0 | 10.0 | 0.00 | 0.22 | 0.16 | 91 | 1015.8 |
| 20260505161950 | 55 | 260 | 8.0 | 9.0 | 0.00 | 0.21 | 0.15 | 9 | 1015.7 |
| 20260505161621 | 55 | 254 | 8.0 | 10.0 | 0.00 | 0.22 | 0.16 | 91 | 1015.8 |
| 20260505161021 | 55 | 262 | 8.0 | 10.0 | 0.00 | 0.22 | 0.16 | 91 | 1015.7 |
| 20260505160949 | 55 | 254 | 8.0 | 9.0 | 0.00 | 0.21 | 0.15 | 9 | 1015.5 |
| 20260505160421 | 55 | 252 | 8.0 | 9.0 | 0.00 | 0.22 | 0.16 | 91 | 1015.7 |
| 20260505152949 | 54 | 219 | 7.0 | 8.0 | 0.00 | 0.21 | 0.15 | 8 | 1015.7 |
| 20260505152624 | 55 | 226 | 9.0 | 11.0 | 0.00 | 0.22 | 0.16 | 88 | 1015.7 |
| 20260505152022 | 55 | 237 | 7.0 | 9.0 | 0.00 | 0.22 | 0.16 | 88 | 1015.6 |
| 20260505151950 | 55 | 237 | 7.0 | 9.0 | 0.00 | 0.21 | 0.15 | 8 | 1015.4 |
| 20260505151419 | 55 | 236 | 9.0 | 11.0 | 0.00 | 0.22 | 0.16 | 88 | 1015.4 |
| 20260505150949 | 55 | 231 | 8.0 | 12.0 | 0.00 | 0.21 | 0.15 | 8 | 1015.2 |
| 20260505150818 | 55 | 232 | 9.0 | 12.0 | 0.00 | 0.22 | 0.16 | 88 | 1015.4 |
| 20260505150239 | 55 | 239 | 8.0 | 12.0 | 0.00 | 0.22 | 0.16 | 88 | 1015.3 |
| 20260505140223 | 55 | 221 | 7.0 | 7.0 | 0.00 | 0.22 | 0.16 | 87 | 1015.2 |
| 20260505130218 | 55 | 229 | 6.0 | 8.0 | 0.00 | 0.22 | 0.16 | 85 | 1015.0 |
| 20260505125038 | 55 | 220 | 7.0 | 8.0 | 0.00 | 0.22 | 0.16 | 84 | 1015.1 |
| 20260505124949 | 54 | 229 | 7.0 | 8.0 | 0.00 | 0.21 | 0.15 | 8 | 1014.9 |
| 20260505124418 | 55 | 244 | 8.0 | 9.0 | 0.00 | 0.22 | 0.16 | 84 | 1015.0 |
| 20260505123949 | 54 | 249 | 7.0 | 8.0 | 0.00 | 0.21 | 0.15 | 8 | 1014.9 |
| 20260505123818 | 55 | 250 | 7.0 | 9.0 | 0.00 | 0.22 | 0.16 | 84 | 1015.0 |
| 20260505123218 | 55 | 245 | 7.0 | 8.0 | 0.00 | 0.22 | 0.16 | 83 | 1015.0 |
| 20260505122638 | 55 | 244 | 6.0 | 8.0 | 0.00 | 0.22 | 0.16 | 83 | 1015.0 |
| 20260505122019 | 55 | 255 | 7.0 | 10.0 | 0.00 | 0.22 | 0.16 | 83 | 1014.9 |
| 20260505121950 | 54 | 254 | 6.0 | 9.0 | 0.00 | 0.21 | 0.15 | 8 | 1014.8 |
| 20260505121419 | 55 | 242 | 7.0 | 9.0 | 0.00 | 0.22 | 0.16 | 83 | 1014.8 |
| 20260505120949 | 54 | 240 | 6.0 | 7.0 | 0.00 | 0.21 | 0.15 | 8 | 1014.8 |
| 20260505120819 | 55 | 240 | 6.0 | 8.0 | 0.00 | 0.22 | 0.16 | 83 | 1014.9 |
| 20260505120221 | 55 | 231 | 7.0 | 8.0 | 0.00 | 0.22 | 0.16 | 82 | 1014.9 |
| 20260505115949 | 54 | 229 | 6.0 | 7.0 | 0.00 | 0.21 | 0.15 | 8 | 1014.8 |
| 20260505115619 | 55 | 232 | 6.0 | 8.0 | 0.00 | 0.22 | 0.16 | 82 | 1014.9 |
| 20260505115019 | 55 | 235 | 7.0 | 8.0 | 0.00 | 0.22 | 0.16 | 82 | 1014.9 |
| 20260505114949 | 54 | 237 | 5.0 | 6.0 | 0.00 | 0.21 | 0.15 | 8 | 1014.8 |
| 20260505114425 | 55 | 234 | 6.0 | 6.0 | 0.00 | 0.22 | 0.16 | 82 | 1015.0 |
| 20260505113949 | 54 | 253 | 4.0 | 5.0 | 0.00 | 0.21 | 0.15 | 8 | 1015.0 |
| 20260505113821 | 55 | 253 | 5.0 | 6.0 | 0.00 | 0.22 | 0.16 | 82 | 1015.1 |
| 20260505113228 | 55 | 250 | 4.0 | 5.0 | 0.00 | 0.22 | 0.16 | 82 | 1015.2 |
| 20260505112949 | 54 | 258 | 3.0 | 4.0 | 0.00 | 0.21 | 0.15 | 8 | 1015.1 |
| 20260505112625 | 55 | 257 | 4.0 | 5.0 | 0.00 | 0.22 | 0.16 | 82 | 1015.2 |
| 20260505112025 | 54 | 271 | 6.0 | 7.0 | 0.00 | 0.22 | 0.16 | 82 | 1014.9 |
| 20260505111949 | 54 | 269 | 6.0 | 7.0 | 0.00 | 0.21 | 0.15 | 8 | 1014.7 |
| 20260505111432 | 54 | 271 | 7.0 | 8.0 | 0.00 | 0.22 | 0.16 | 83 | 1014.9 |
| 20260505110852 | 54 | 291 | 6.0 | 8.0 | 0.00 | 0.22 | 0.16 | 83 | 1014.9 |
| 20260505110220 | 54 | 285 | 9.0 | 10.0 | 0.00 | 0.22 | 0.16 | 84 | 1015.0 |
| 20260505102020 | 54 | 300 | 6.0 | 10.0 | 0.01 | 0.22 | 0.16 | 88 | 1015.0 |
| 20260505101949 | 54 | 284 | 6.0 | 8.0 | 0.00 | 0.21 | 0.15 | 8 | 1014.8 |
| 20260505101420 | 54 | 306 | 4.0 | 8.0 | 0.01 | 0.22 | 0.16 | 89 | 1015.0 |
| 20260505100949 | 54 | 299 | 4.0 | 6.0 | 0.00 | 0.21 | 0.15 | 8 | 1015.1 |
| 20260505100821 | 54 | 300 | 4.0 | 6.0 | 0.01 | 0.22 | 0.16 | 89 | 1015.2 |
| 20260505100221 | 54 | 289 | 4.0 | 7.0 | 0.01 | 0.22 | 0.16 | 90 | 1015.2 |
| 20260505095949 | 54 | 302 | 3.0 | 5.0 | 0.00 | 0.21 | 0.15 | 8 | 1015.1 |
| 20260505095621 | 54 | 304 | 6.0 | 7.0 | 0.01 | 0.22 | 0.16 | 90 | 1015.3 |
| 20260505095021 | 54 | 303 | 6.0 | 8.0 | 0.01 | 0.22 | 0.16 | 90 | 1015.2 |
| 20260505094949 | 54 | 304 | 6.0 | 9.0 | 0.01 | 0.21 | 0.15 | 8 | 1015.1 |
| 20260505094421 | 54 | 300 | 7.0 | 9.0 | 0.02 | 0.22 | 0.16 | 90 | 1015.2 |
| 20260505093949 | 54 | 291 | 4.0 | 5.0 | 0.02 | 0.21 | 0.15 | 9 | 1015.1 |
| 20260505093821 | 54 | 292 | 4.0 | 6.0 | 0.03 | 0.21 | 0.16 | 90 | 1015.3 |
| 20260505093221 | 54 | 281 | 4.0 | 6.0 | 0.05 | 0.21 | 0.16 | 90 | 1015.4 |
| 20260505092949 | 53 | 201 | 2.0 | 4.0 | 0.06 | 0.21 | 0.15 | 9 | 1015.4 |
| 20260505092622 | 53 | 226 | 4.0 | 7.0 | 0.06 | 0.21 | 0.15 | 90 | 1015.5 |
| 20260505092031 | 53 | 137 | 1.0 | 3.0 | 0.06 | 0.21 | 0.15 | 90 | 1015.6 |
| 20260505091949 | 53 | 140 | 1.0 | 2.0 | 0.06 | 0.20 | 0.15 | 8 | 1015.5 |
| 20260505091451 | 53 | 154 | 2.0 | 3.0 | 0.06 | 0.21 | 0.15 | 90 | 1015.7 |
| 20260505090949 | 52 | 135 | 1.0 | 2.0 | 0.08 | 0.20 | 0.15 | 8 | 1015.6 |
| 20260505090831 | 53 | 136 | 2.0 | 2.0 | 0.09 | 0.21 | 0.15 | 90 | 1015.8 |
| 20260505090231 | 53 | 122 | 2.0 | 3.0 | 0.11 | 0.21 | 0.15 | 90 | 1015.8 |
| 20260505085949 | 52 | 74 | 0.0 | 0.0 | 0.12 | 0.20 | 0.15 | 8 | 1015.7 |
| 20260505085630 | 53 | 74 | 0.0 | 1.0 | 0.13 | 0.21 | 0.15 | 90 | 1015.8 |
| 20260505085031 | 53 | 173 | 2.0 | 2.0 | 0.13 | 0.20 | 0.15 | 89 | 1015.8 |
| 20260505084949 | 52 | 187 | 2.0 | 3.0 | 0.12 | 0.20 | 0.14 | 8 | 1015.6 |
| 20260505084431 | 53 | 162 | 2.0 | 3.0 | 0.13 | 0.20 | 0.14 | 89 | 1015.7 |
| 20260505083949 | 52 | 144 | 2.0 | 3.0 | 0.11 | 0.17 | 0.12 | 8 | 1015.6 |
| 20260505083831 | 53 | 145 | 2.0 | 3.0 | 0.12 | 0.19 | 0.13 | 89 | 1015.7 |
| 20260505083231 | 53 | 150 | 1.0 | 2.0 | 0.10 | 0.16 | 0.11 | 89 | 1015.8 |
| 20260505082949 | 52 | 163 | 1.0 | 2.0 | 0.08 | 0.14 | 0.09 | 8 | 1015.6 |
| 20260505082631 | 53 | 150 | 2.0 | 3.0 | 0.09 | 0.15 | 0.09 | 88 | 1015.8 |
| 20260505082031 | 53 | 167 | 2.0 | 3.0 | 0.09 | 0.15 | 0.09 | 88 | 1015.8 |
| 20260505081949 | 52 | 171 | 2.0 | 3.0 | 0.08 | 0.14 | 0.08 | 8 | 1015.7 |
| 20260505081432 | 53 | 159 | 3.0 | 3.0 | 0.09 | 0.14 | 0.09 | 88 | 1015.9 |
| 20260505080949 | 52 | 176 | 1.0 | 3.0 | 0.05 | 0.11 | 0.05 | 8 | 1015.9 |
| 20260505080832 | 53 | 176 | 2.0 | 3.0 | 0.06 | 0.12 | 0.06 | 87 | 1016.0 |
| 20260505080232 | 53 | 185 | 2.0 | 3.0 | 0.04 | 0.09 | 0.04 | 87 | 1016.1 |
| 20260505075949 | 53 | 160 | 1.0 | 2.0 | 0.02 | 0.08 | 0.02 | 8 | 1015.9 |
| 20260505075618 | 53 | 185 | 3.0 | 3.0 | 0.03 | 0.08 | 0.03 | 86 | 1016.0 |
| 20260505075018 | 54 | 204 | 3.0 | 3.0 | 0.02 | 0.07 | 0.02 | 85 | 1016.1 |
| 20260505074949 | 53 | 198 | 2.0 | 3.0 | 0.01 | 0.06 | 0.01 | 8 | 1016.0 |
| 20260505074418 | 54 | 200 | 3.0 | 3.0 | 0.02 | 0.07 | 0.01 | 84 | 1016.2 |
| 20260505073950 | 54 | 272 | 3.0 | 4.0 | 0.01 | 0.06 | 0.00 | 8 | 1016.1 |
| 20260505073838 | 54 | 272 | 4.0 | 5.0 | 0.02 | 0.07 | 0.01 | 84 | 1016.3 |
| 20260505073238 | 54 | 301 | 2.0 | 3.0 | 0.02 | 0.06 | 0.01 | 84 | 1016.3 |
| 20260505072949 | 54 | 199 | 1.0 | 2.0 | 0.01 | 0.05 | 0.00 | 8 | 1016.2 |